Location: Tyler Bend Campground
(35.9875°N, 92.7606°W)
Time: 00:44:00
(UTC-05:00)

CZ-2C R/B - Visible Passes

Search period start: 01 August 2015 00:00
Search period end: 11 August 2015 00:00
Orbit: 669 x 786 km, 98.1° (Epoch: 31 July)

Date Brightness Start Highest point End Pass type
(mag) Time Alt. Az. Time Alt. Az. Time Alt. Az.
01 Aug 5.0 20:43:38 10° SW 20:47:03 20° W 20:50:22 10° NW visible
03 Aug 5.0 20:46:29 10° SW 20:49:46 18° W 20:52:57 10° NW visible
05 Aug 5.1 20:49:21 10° SW 20:52:30 17° W 20:55:31 10° NW visible
07 Aug 5.1 20:52:14 10° SW 20:55:14 16° W 20:58:04 10° NW visible
09 Aug 5.2 20:55:09 10° SW 20:57:58 15° W 21:00:37 10° WNW visible
